Weather reports worldwide

Advertisment
Kleine Brogel, Belgium (6479): temperature & dewpoint: 22.02.2017 15:00:00 - 28.02.2017 15:00:00 (CET)Kleine Brogel, Belgium (6479): wind speed & gusts: 22.02.2017 15:00:00 - 28.02.2017 15:00:00 (CET)Kleine Brogel, Belgium (6479): wind direction: 22.02.2017 15:00:00 - 28.02.2017 15:00:00 (CET)Kleine Brogel, Belgium (6479): reduced air pressure: 22.02.2017 15:00:00 - 28.02.2017 15:00:00 (CET)Kleine Brogel, Belgium (6479): visibility: 22.02.2017 15:00:00 - 28.02.2017 15:00:00 (CET)Kleine Brogel, Belgium (6479): precipitation: 22.02.2017 15:00:00 - 28.02.2017 15:00:00 (CET)
Date & Time tt [°C] td [°C] ff [km/h] ff [kn] fx [km/h] fx [kn] dd ppp [hPa] vv [km] rr [mm]
28.02.2017 15:00:00 8,1 0,0 18 10 36 19 SSW 989,1 15 -
28.02.2017 14:00:00 8,2 -0,3 18 10 36 19 SSW 989,4 15 -
28.02.2017 13:00:00 7,9 -0,1 22 12 - - SW 990,1 15 -
28.02.2017 12:00:00 7,5 0,3 29 16 47 25 SW 990,9 15 -
28.02.2017 11:00:00 6,8 0,6 32 18 54 29 SW 991,3 15 -
28.02.2017 10:00:00 6,1 0,3 29 16 - - SW 991,2 15 -
28.02.2017 09:00:00 5,5 0,1 29 16 50 27 SSW 991,0 15 -
28.02.2017 08:00:00 - - - - - - - - - -
28.02.2017 07:00:00 - - - - - - - - - -
28.02.2017 06:00:00 4,6 0,4 25 14 50 27 SSW 990,4 15 -
28.02.2017 05:00:00 5,3 -0,2 25 14 47 25 SW 990,1 20 -
28.02.2017 04:00:00 5,3 0,3 25 14 - - SW 990,2 20 -
28.02.2017 03:00:00 4,3 0,6 25 14 47 25 SW 990,3 20 -
28.02.2017 02:00:00 3,5 2,2 16 9 54 29 SW 990,7 10 -
28.02.2017 01:00:00 6,3 1,0 24 13 - - WSW 989,8 3,5 1,2
28.02.2017 00:00:00 6,5 0,4 25 14 58 31 SW 990,5 20 -
27.02.2017 23:00:00 7,1 1,4 29 16 50 27 WSW 991,0 20 -
27.02.2017 22:00:00 8,0 2,8 32 18 - - SW 990,7 20 -
27.02.2017 21:00:00 8,2 3,3 29 16 43 23 SW 990,9 20 -
27.02.2017 20:00:00 7,9 4,8 18 10 32 18 SSW 990,6 20 -
27.02.2017 19:00:00 7,9 5,9 14 8 - - S 990,7 20 -
27.02.2017 18:00:00 6,3 5,4 11 6 32 18 S 991,7 20 -
27.02.2017 17:00:00 6,0 5,1 22 12 68 37 SSW 993,1 4,0 -
27.02.2017 16:00:00 11,1 6,4 18 10 - - S 992,4 18 -
27.02.2017 15:00:00 12,3 4,7 22 12 47 25 SSW 993,9 20 -
27.02.2017 14:00:00 12,1 4,8 22 12 40 21 S 995,4 20 -
27.02.2017 13:00:00 11,8 4,2 22 12 - - SSW 997,4 20 -
27.02.2017 12:00:00 11,8 4,0 28 15 50 27 SSW 998,9 10 -
27.02.2017 11:00:00 11,1 4,2 22 12 43 23 SSW 1000,5 20 -
27.02.2017 10:00:00 11,0 3,9 22 12 - - SW 1001,5 20 -
27.02.2017 09:00:00 10,4 4,4 22 12 43 23 SSW 1002,5 20 -
27.02.2017 08:00:00 10,1 4,0 22 12 43 23 SSW 1003,3 20 -
27.02.2017 07:00:00 10,5 3,9 22 12 - - SW 1004,1 20 -
27.02.2017 06:00:00 10,4 6,0 11 6 29 16 SSW 1004,6 20 -
27.02.2017 05:00:00 10,3 6,1 14 8 29 16 SSW 1005,3 20 -
27.02.2017 04:00:00 10,6 6,4 18 10 - - SSW 1006,1 20 -
27.02.2017 03:00:00 10,5 6,7 14 8 29 16 SSW 1007,1 20 -
27.02.2017 02:00:00 10,6 6,7 18 10 29 16 SSW 1007,7 20 -
27.02.2017 01:00:00 10,3 6,7 18 10 - - SSW 1008,2 20 1,0
27.02.2017 00:00:00 10,6 6,4 18 10 32 18 SSW 1008,5 20 -
26.02.2017 23:00:00 10,1 6,4 14 8 25 14 SSW 1009,0 20 -
26.02.2017 22:00:00 10,1 6,3 14 8 - - SSW 1009,2 20 -
26.02.2017 21:00:00 10,0 6,4 18 10 32 18 SSW 1009,7 20 -
26.02.2017 20:00:00 9,6 6,3 18 10 29 16 SSW 1010,1 20 -
26.02.2017 19:00:00 9,7 6,4 16 9 - - SSW 1010,7 10 -
26.02.2017 18:00:00 9,8 6,6 18 10 32 18 SSW 1010,7 20 -
26.02.2017 17:00:00 9,8 7,1 18 10 36 19 SSW 1010,7 20 -
26.02.2017 16:00:00 10,1 6,6 18 10 - - SSW 1011,0 20 -
26.02.2017 15:00:00 10,1 6,7 18 10 36 19 SW 1011,2 11 -
26.02.2017 14:00:00 9,6 6,1 22 12 32 18 SSW 1011,5 20 -
26.02.2017 13:00:00 8,3 6,4 18 10 - - SSW 1012,2 6 -
26.02.2017 12:00:00 9,0 5,0 22 12 36 19 SW 1012,6 10 -
26.02.2017 11:00:00 8,8 3,9 22 12 40 21 SW 1012,6 20 -
26.02.2017 10:00:00 8,1 2,9 25 14 - - SW 1012,5 20 -
26.02.2017 09:00:00 6,9 3,4 18 10 32 18 SW 1012,3 20 -
26.02.2017 08:00:00 7,1 1,9 21 11 29 16 SW 1012,3 10 -
26.02.2017 07:00:00 6,8 2,1 14 8 - - SSW 1011,7 20 -
26.02.2017 06:00:00 6,9 1,7 14 8 29 16 SSW 1011,8 20 -
26.02.2017 05:00:00 7,4 1,6 18 10 29 16 SSW 1012,5 20 -
26.02.2017 04:00:00 7,2 1,3 14 8 - - SSW 1012,8 20 -
26.02.2017 03:00:00 7,1 1,3 14 8 32 18 SW 1013,6 20 -
26.02.2017 02:00:00 7,1 1,3 18 10 36 19 SSW 1013,6 10 -
26.02.2017 01:00:00 7,0 1,0 18 10 - - SSW 1014,1 20 0,8
26.02.2017 00:00:00 6,8 1,2 14 8 29 16 SSW 1014,6 19 -
25.02.2017 23:00:00 6,6 1,4 18 10 29 16 SSW 1015,2 20 -
25.02.2017 22:00:00 6,5 1,6 16 9 - - SSW 1015,7 10 -
25.02.2017 21:00:00 6,9 1,7 14 8 25 14 SSW 1016,1 20 -
25.02.2017 20:00:00 7,0 1,6 14 8 25 14 SW 1016,2 20 -
25.02.2017 19:00:00 7,2 1,6 18 10 - - SW 1016,3 20 -
25.02.2017 18:00:00 7,7 1,2 18 10 32 18 SSW 1016,2 20 -
25.02.2017 17:00:00 8,1 0,9 18 10 40 21 SSW 1016,7 20 -
25.02.2017 16:00:00 7,9 0,6 18 10 - - SSW 1017,2 20 -
25.02.2017 15:00:00 8,1 0,2 25 14 43 23 SW 1018,1 11 -
25.02.2017 14:00:00 7,3 0,3 22 12 36 19 SW 1018,7 20 -
25.02.2017 13:00:00 6,9 1,2 22 12 - - SSW 1019,6 15 -
25.02.2017 12:00:00 6,7 0,8 22 12 40 21 SW 1020,5 20 -
25.02.2017 11:00:00 6,1 0,2 25 14 40 21 SW 1020,6 20 -
25.02.2017 10:00:00 4,5 0,8 18 10 - - SSW 1021,0 20 -
25.02.2017 09:00:00 2,5 0,3 11 6 18 10 SSW 1021,3 12 -
25.02.2017 08:00:00 0,6 -0,2 7 4 14 8 SSW 1021,2 7 -
25.02.2017 07:00:00 0,6 -0,2 7 4 - - SSW 1021,2 6 -
25.02.2017 06:00:00 0,5 -0,3 11 6 14 8 SSW 1021,0 4,5 -
25.02.2017 05:00:00 0,4 -0,1 7 4 14 8 SSW 1020,8 4,5 -
25.02.2017 04:00:00 0,6 0,1 7 4 - - SW 1021,3 3,9 -
25.02.2017 03:00:00 0,6 0,1 7 4 11 6 - 1021,7 4,7 -
25.02.2017 02:00:00 0,9 0,1 4 2 7 4 - 1021,7 5 -
25.02.2017 01:00:00 1,0 0,0 4 2 - - - 1021,7 7 0,8
25.02.2017 00:00:00 0,8 -0,1 4 2 7 4 - 1021,6 12 -
24.02.2017 23:00:00 0,4 -0,5 4 2 7 4 - 1021,5 6 -
24.02.2017 22:00:00 1,2 0,0 7 4 - - WSW 1021,1 17 -
24.02.2017 21:00:00 2,2 0,2 4 2 11 6 - 1020,7 20 -
24.02.2017 20:00:00 4,3 0,8 8 4 11 6 W 1020,2 10 -
24.02.2017 19:00:00 4,4 0,9 4 2 - - - 1019,2 20 -
24.02.2017 18:00:00 6,0 0,7 7 4 22 12 W 1018,2 20 -
24.02.2017 17:00:00 6,5 0,7 11 6 14 8 W 1017,2 25 -
24.02.2017 16:00:00 6,3 2,7 11 6 - - WNW 1016,2 16 -
24.02.2017 15:00:00 5,7 3,4 7 4 32 18 W 1016,0 20 -
24.02.2017 14:00:00 6,9 0,4 18 10 25 14 W 1015,3 20 -
24.02.2017 13:00:00 7,7 -0,9 11 6 - - WNW 1015,1 20 -
24.02.2017 12:00:00 7,3 2,3 14 8 22 12 W 1014,7 20 -
24.02.2017 11:00:00 5,5 2,8 11 6 25 14 W 1014,2 20 -
24.02.2017 10:00:00 5,0 2,2 11 6 - - W 1013,5 20 -
24.02.2017 09:00:00 3,4 1,7 13 7 22 12 WSW 1012,6 10 -
24.02.2017 08:00:00 3,2 0,8 13 7 22 12 W 1011,6 10 -
24.02.2017 07:00:00 3,0 1,5 14 8 - - W 1010,2 20 -
24.02.2017 06:00:00 3,0 1,7 14 8 25 14 W 1009,2 20 -
24.02.2017 05:00:00 3,5 2,0 13 7 25 14 W 1007,8 10 -
24.02.2017 04:00:00 3,7 2,1 11 6 - - W 1007,0 20 -
24.02.2017 03:00:00 3,5 1,8 18 10 47 25 W 1006,0 20 -
24.02.2017 02:00:00 4,6 2,0 21 11 43 23 W 1004,2 10 -
24.02.2017 01:00:00 4,8 2,4 22 12 - - W 1002,5 20 1,1
24.02.2017 00:00:00 5,1 2,7 29 16 76 41 W 999,5 18 -
23.02.2017 23:00:00 6,1 2,5 40 21 76 41 W 997,1 20 -
23.02.2017 22:00:00 7,1 1,1 40 21 - - W 995,7 20 -
23.02.2017 21:00:00 7,2 1,8 44 24 76 41 WSW 994,5 10 -
23.02.2017 20:00:00 8,3 2,2 40 21 76 41 WSW 993,6 20 -
23.02.2017 19:00:00 9,0 1,9 54 29 - - WSW 993,4 20 -
23.02.2017 18:00:00 9,5 1,7 50 27 86 47 WSW 992,5 20 -
23.02.2017 17:00:00 9,9 1,9 50 27 76 41 WSW 992,1 20 -
23.02.2017 16:00:00 10,8 2,8 36 19 - - WSW 991,8 20 -
23.02.2017 15:00:00 10,8 5,4 43 23 76 41 WSW 992,2 20 -
23.02.2017 14:00:00 8,8 7,4 37 20 68 37 SW 993,5 3,0 -
23.02.2017 13:00:00 8,6 7,0 32 18 - - SSW 994,8 15 -
23.02.2017 12:00:00 8,3 7,5 29 16 47 25 SW 997,3 4,5 -
23.02.2017 11:00:00 8,1 7,5 28 15 54 29 SW 998,6 4,5 -
23.02.2017 10:00:00 8,8 6,9 35 19 - - SW 999,7 10 -
23.02.2017 09:00:00 8,5 7,5 28 15 47 25 SSW 1000,3 3,5 -
23.02.2017 08:00:00 8,6 7,0 32 18 47 25 SW 1001,7 20 -
23.02.2017 07:00:00 8,4 7,8 29 16 - - SW 1002,5 9 -
23.02.2017 06:00:00 8,6 8,0 29 16 54 29 SW 1003,2 8 -
23.02.2017 05:00:00 9,0 8,4 29 16 50 27 SW 1004,1 3,5 -
23.02.2017 04:00:00 9,3 8,8 25 14 - - SW 1004,7 4,5 -
23.02.2017 03:00:00 9,4 8,8 29 16 43 23 WSW 1005,7 6 -
23.02.2017 02:00:00 9,5 8,9 29 16 43 23 WSW 1006,2 10 -
23.02.2017 01:00:00 9,6 9,0 28 15 - - WSW 1006,5 10 1,0
23.02.2017 00:00:00 9,6 9,1 29 16 50 27 WSW 1006,7 14 -
22.02.2017 23:00:00 9,7 9,2 31 17 47 25 WSW 1007,0 10 -
22.02.2017 22:00:00 9,8 9,1 32 18 - - WSW 1007,1 9 -
22.02.2017 21:00:00 9,8 9,0 32 18 47 25 WSW 1007,2 19 -
22.02.2017 20:00:00 9,8 9,0 32 18 47 25 WSW 1007,2 10 -
22.02.2017 19:00:00 9,6 9,0 29 16 - - WSW 1007,5 3,1 -
22.02.2017 18:00:00 - - - - - - - - - -
22.02.2017 17:00:00 9,6 9,0 29 16 47 25 WSW 1007,5 3,5 -
22.02.2017 16:00:00 9,6 9,0 29 16 - - WSW 1007,2 3,5 -
22.02.2017 15:00:00 9,8 9,1 29 16 47 25 WSW 1007,5 3,0 -

tt = temperature
td = dewpoint
ff = wind speed
fx = gusts
dd = wind direction
ppp = reduced air pressure
vv = visibility
rr = precipitation

Next stations